Location: Unspecified
(45.8150°N, 0.0000°E)
Time: 14:09:42
(UTC+00:00)

CZ-6A DEB - Visible Passes

Search period start: 04 April 2026 00:00
Search period end: 14 April 2026 00:00
Orbit: 778 x 839 km, 89.0° (Epoch: 28 March)

Date Brightness Start Highest point End Pass type
(mag) Time Alt. Az. Time Alt. Az. Time Alt. Az.
4 Apr ? 19:37:30 10° NW 19:39:31 12° WNW 19:41:30 10° W visible
5 Apr ? 19:11:52 10° NNW 19:15:24 18° WNW 19:18:56 10° WSW visible
6 Apr ? 04:53:58 10° SE 04:58:17 27° ENE 05:02:38 10° NNE visible
7 Apr ? 04:30:34 10° ESE 04:34:05 19° ENE 04:37:38 10° NNE visible
8 Apr ? 04:07:50 10° E 04:09:58 13° ENE 04:12:05 10° NE visible
9 Apr ? 19:16:26 10° NW 19:18:26 12° WNW 19:20:26 10° W visible
11 Apr ? 04:32:47 10° SE 04:37:09 28° ENE 04:41:32 10° NNE visible
12 Apr ? 04:09:21 10° ESE 04:12:55 19° ENE 04:16:32 10° NNE visible
13 Apr ? 03:46:32 10° E 03:48:45 13° ENE 03:51:00 10° NE visible
